Regional Weather Roundup
Issued by NWS Goodland, KS

Home | Current Version | Previous Version | Graphics & Text | Print | Product List | Glossary On
Versions: 1 2 3 4 5 6 7 8 9 10 11 12 13 14 15 16 17 18 19 20 21 22 23 24 25 26 27 28 29 30 31 32 33 34 35 36 37 38 39 40 41 42 43 44 45 46 47 48 49 50
000
ASUS43 KGLD 011059
RWRGLD

GOODLAND FORECAST AREA HOURLY WEATHER ROUNDUP
NATIONAL WEATHER SERVICE GOODLAND KS
400 AM MST SUN MAR 01 2015

...OFFICIAL OBSERVATIONS...

CITY           SKY/WX    TMP DP  RH WIND       PRES   REMARKS
GOODLAND KS    CLOUDY    20  18  92 S7        30.14S
HILL CITY KS   CLOUDY    17  14  88 CALM      30.26S
IMPERIAL NEB     N/A     16  11  80 CALM      30.18S
MCCOOK NEB     CLOUDY    21  16  81 CALM      30.22R
AKRON CO       CLOUDY    17  15  92 N5        30.08R
BURLINGTON CO  CLOUDY    19  14  81 W5        30.11R
LIMON CO       FOG        1  -1  91 NW3       30.05R VSB 1/2
$$

...UNOFFICIAL OBSERVATIONS...

CITY           SKY/WX    TMP DP  RH WIND       PRES   REMARKS
COLBY KS       CLOUDY    21  21 100 S3        30.19S
GOVE KS          N/A     19  32 100 MISG        N/A
LENORA KS        N/A     18  32 100 CALM        N/A
NORTON KS      CLEAR     18  12  79 SW3       30.23R
SHARON SPRINGS   N/A     20  18  92 CALM        N/A
KIT CARSON CO    N/A     16  12  84 MISG        N/A
YUMA CO          N/A     17  13  84 CALM        N/A
$$


USA.gov is the U.S. government's official web portal to all federal, state and local government web resources and services.